Location: Doschendorf
(50.0069°N, 11.0602°E)
Time: 07:26:52
(UTC+00:00)

Cosmos 1356 Rocket - Pass Details

Date: 17 November 2019
Orbit: 543 x 598 km, 81.2° (Epoch: 14 December)

Event Time Altitude Azimuth Distance (km) Brightness Sun altitude
Rises 16:38:01 0° 180° (S) 2,768 7.1 -10.9°
Reaches altitude 10° 16:40:11 10° 176° (S) 1,884 6.2 -11.3°
Maximum altitude 16:44:17 58° 97° (E) 683 3.5 -11.9°
Drops below altitude 10° 16:48:29 10° 19° (NNE) 1,930 5.8 -12.6°
Enters shadow 16:50:40 - 16° (NNE) 2,813 6.6 -12.9°
